Location: Unspecified
(0.0000°N, 0.0000°E)
Time: 08:26:27
(UTC+00:00)

BlueWalker 3 - Pass Details

Date: 18 April 2026
Orbit: 450 x 457 km, 53.2° (Epoch: 9 April)

Event Time Altitude Azimuth Distance (km) Brightness Sun altitude
Rises 19:27:32 0° 310° (NW) 2,452 6.5 -21.6°
Reaches altitude 10° 19:29:49 10° 299° (WNW) 1,583 5.5 -22.2°
Maximum altitude 19:32:59 30° 236° (SW) 840 3.4 -23.0°
Enters shadow 19:33:51 26° 208° (SSW) 919 3.4 -23.2°
